DW7756 Weather Reports


Display with metric or nautical units.
time (UTC)temp
F
wind
direction
speed
MPH
gust
MPH
rain 1hr
in
rain 24hr
in
rain mn
in
humidity
%
barometer
mb
20260506231534 81 148 1.0 5.0 0.00 0.00 0.00 54 1015.7
20260506230032 82 80 2.0 7.0 0.00 0.00 0.00 52 1015.6
20260506224532 83 111 2.0 6.0 0.00 0.00 0.00 51 1015.5
20260506223028 84 88 1.0 7.0 0.00 0.00 0.00 51 1015.6
20260506221528 84 98 2.0 7.0 0.00 0.00 0.00 52 1015.8
20260506220032 85 61 2.0 8.0 0.00 0.00 0.00 52 1015.8
20260506214530 85 126 3.0 9.0 0.00 0.00 0.00 53 1015.7
20260506213037 85 65 3.0 7.0 0.00 0.00 0.00 55 1015.7
20260506211540 86 85 3.0 9.0 0.00 0.00 0.00 52 1015.7
20260506210040 87 65 3.0 11.0 0.00 0.00 0.00 52 1015.6
20260506204533 87 82 2.0 8.0 0.00 0.00 0.00 51 1015.7
20260506203034 87 100 3.0 12.0 0.00 0.00 0.00 52 1015.9
20260506201536 89 127 2.0 10.0 0.00 0.00 0.00 49 1015.7
20260506200032 89 155 2.0 8.0 0.00 0.00 0.00 51 1015.9
20260506194530 88 107 2.0 9.0 0.00 0.00 0.00 50 1016.0
20260506193043 88 74 3.0 9.0 0.00 0.00 0.00 48 1016.0
20260506191529 88 48 2.0 10.0 0.00 0.00 0.00 49 1016.1
20260506190032 89 88 3.0 10.0 0.00 0.00 0.00 45 1016.4
20260506184536 89 84 3.0 9.0 0.00 0.00 0.00 46 1016.6
20260506183032 89 86 2.0 9.0 0.00 0.00 0.00 46 1016.7
20260506181540 90 127 1.0 5.0 0.00 0.00 0.00 47 1016.7
20260506180032 88 148 2.0 10.0 0.00 0.00 0.00 49 1016.8
20260506174536 88 62 3.0 10.0 0.00 0.00 0.00 49 1016.9
20260506173058 88 189 2.0 11.0 0.00 0.00 0.00 51 1017.1
20260506171539 89 119 2.0 9.0 0.00 0.00 0.00 53 1017.2
20260506170044 87 80 2.0 9.0 0.00 0.00 0.00 53 1017.2
20260506164532 87 72 4.0 12.0 0.00 0.00 0.00 53 1017.3
20260506163035 88 174 2.0 8.0 0.00 0.00 0.00 53 1017.2
20260506161532 87 69 1.0 7.0 0.00 0.00 0.00 55 1017.3
20260506160037 87 196 2.0 5.0 0.00 0.00 0.00 54 1017.4
20260506154538 87 200 0.0 7.0 0.00 0.00 0.00 59 1017.5
20260506153031 86 81 2.0 9.0 0.00 0.00 0.00 54 1017.6
20260506151533 85 192 3.0 8.0 0.00 0.00 0.00 56 1017.7
20260506150032 84 194 1.0 6.0 0.00 0.00 0.00 63 1017.7
20260506144532 83 115 2.0 10.0 0.00 0.00 0.00 63 1017.7
20260506143030 82 93 1.0 4.0 0.00 0.00 0.00 66 1017.7
20260506141531 81 101 1.0 7.0 0.00 0.00 0.00 69 1017.8
20260506140034 80 140 1.0 6.0 0.00 0.00 0.00 73 1017.6
20260506134532 78 86 1.0 8.0 0.00 0.00 0.00 78 1017.6
20260506133036 76 169 2.0 5.0 0.00 0.00 0.00 82 1017.5
20260506131534 74 0 1.0 4.0 0.00 0.00 0.00 86 1017.5
20260506130035 72 115 0.0 2.0 0.00 0.00 0.00 88 1017.4
20260506124529 71 105 0.0 2.0 0.00 0.00 0.00 88 1017.2
20260506123033 69 0 0.0 0.0 0.00 0.00 0.00 88 1017.2
20260506121532 68 0 0.0 0.0 0.00 0.00 0.00 88 1017.0
20260506120030 66 0 0.0 0.0 0.00 0.00 0.00 89 1017.1
20260506114539 63 0 0.0 0.0 0.00 0.00 0.00 88 1016.8
20260506113032 63 0 0.0 0.0 0.00 0.00 0.00 88 1016.6
20260506111531 63 0 0.0 0.0 0.00 0.00 0.00 88 1016.4
20260506110040 63 0 0.0 0.0 0.00 0.00 0.00 87 1016.4
20260506104556 63 0 0.0 0.0 0.00 0.00 0.00 87 1016.2
20260506103032 63 0 0.0 0.0 0.00 0.00 0.00 87 1016.1
20260506101532 63 0 0.0 0.0 0.00 0.00 0.00 87 1016.2
20260506100039 63 0 0.0 0.0 0.00 0.00 0.00 87 1016.2
20260506094534 63 0 0.0 0.0 0.00 0.00 0.00 86 1015.9
20260506093032 63 0 0.0 0.0 0.00 0.00 0.00 86 1015.8
20260506091532 63 0 0.0 0.0 0.00 0.00 0.00 86 1015.8
20260506090041 63 0 0.0 0.0 0.00 0.00 0.00 86 1015.7
20260506084535 63 0 0.0 0.0 0.00 0.00 0.00 86 1015.7
20260506083039 64 0 0.0 2.0 0.00 0.00 0.00 86 1015.8
20260506081533 64 0 0.0 0.0 0.00 0.00 0.00 86 1015.9
20260506073030 65 0 0.0 0.0 0.00 0.00 0.00 84 1015.8
20260506071529 65 0 0.0 0.0 0.00 0.00 0.00 84 1015.8
20260506061532 66 0 0.0 0.0 0.00 0.00 0.00 84 1016.4
20260506044536 66 0 0.0 2.0 0.00 0.00 0.00 81 1016.6
20260506043034 66 0 0.0 1.0 0.00 0.00 0.00 80 1016.6
20260506041532 66 0 0.0 0.0 0.00 0.00 0.00 80 1016.6
20260506040042 66 0 0.0 1.0 0.00 0.00 0.00 80 1016.6
20260506034530 67 0 0.0 0.0 0.00 0.00 0.00 79 1016.7
20260506033029 67 0 0.0 0.0 0.00 0.00 0.00 77 1016.7
20260506031530 67 0 0.0 0.0 0.00 0.00 0.00 76 1016.8
20260506030032 67 0 0.0 0.0 0.00 0.00 0.00 75 1016.7
20260506024540 68 0 0.0 0.0 0.00 0.00 0.00 75 1016.6
20260506023030 68 0 0.0 2.0 0.00 0.00 0.00 73 1016.7
20260506021548 69 0 0.0 1.0 0.00 0.00 0.00 72 1016.5
20260506020030 70 0 0.0 0.0 0.00 0.00 0.00 71 1016.4
20260506014529 70 0 0.0 0.0 0.00 0.00 0.00 70 1016.6
20260506013029 71 0 0.0 0.0 0.00 0.00 0.00 69 1016.5
20260506011533 72 0 0.0 2.0 0.00 0.00 0.00 68 1016.2
20260506010043 72 0 0.0 2.0 0.00 0.00 0.00 67 1015.9
20260506004531 72 101 0.0 4.0 0.00 0.00 0.00 66 1015.8
20260506003029 73 99 1.0 3.0 0.00 0.00 0.00 65 1015.9
20260506001528 74 109 1.0 5.0 0.00 0.00 0.00 63 1015.6
20260506000031 74 90 1.0 4.0 0.00 0.00 0.00 62 1015.6
20260505234547 75 87 2.0 6.0 0.00 0.00 0.00 61 1015.6
20260505233033 76 92 1.0 6.0 0.00 0.00 0.00 60 1015.6